Tracking 18032 objects as of 27-March-2017
HD Live streaming from Space Station
objects crossing your sky now

OPS 3367 B

Track OPS 3367 B now!
10-day predictions
OPS 3367 B is classified as:


NORAD ID: 735
Int'l Code: 1964-002C
Perigee: 794.9 km
Apogee: 817.9 km
Inclination: 99.0 °
Period: 100.9 minutes
Semi major axis: 7177 km
RCS: 0.3381 m2 (medium)
Launch date: January 19, 1964
Source: United States (US)
Launch site: AIR FORCE WESTERN TEST RANGE (AFWTR)
Your satellite tracking list
Your tracking list is empty





NASA's NSSDC Master Catalog

Two Line Element Set (TLE):
1   735U 64002C   17084.93246175 -.00000012 +00000-0 +14070-4 0  9994
2   735 098.9863 197.7205 0016020 323.4641 036.5445 14.27749887765746
Source of the keplerian elements: AFSPC